Time,TemperatureF,DewpointF,PressureIn,WindDirection,WindDirectionDegrees,WindSpeedMPH,WindSpeedGustMPH,Humidity,HourlyPrecipIn,Conditions,Clouds,dailyrainin,SoftwareType,DateUTC
2014-01-26 00:01:00,32.4,19.7,29.77,South,180,0.0,-999.0,59,-99.99,,,0.00,Acu-Link.com,2014-01-26 05:01:00,
2014-01-26 00:16:00,32.2,19.9,29.78,SSW,202,0.0,-999.0,60,-99.99,,,0.00,Acu-Link.com,2014-01-26 05:16:00,
2014-01-26 00:31:00,32.0,20.1,29.78,West,270,4.2,-999.0,61,-99.99,,,0.00,Acu-Link.com,2014-01-26 05:31:00,
2014-01-26 00:46:00,32.2,20.3,29.78,South,180,0.0,-999.0,61,-99.99,,,0.00,Acu-Link.com,2014-01-26 05:46:00,
2014-01-26 01:01:00,32.2,20.3,29.79,ESE,112,0.0,-999.0,61,-99.99,,,0.00,Acu-Link.com,2014-01-26 06:01:00,
2014-01-26 01:17:00,32.0,20.9,29.79,South,180,0.0,-999.0,63,-99.99,,,0.00,Acu-Link.com,2014-01-26 06:17:00,
2014-01-26 01:32:00,32.0,21.2,29.78,SSW,202,0.0,-999.0,64,-99.99,,,0.00,Acu-Link.com,2014-01-26 06:32:00,
2014-01-26 01:47:00,31.8,21.0,29.78,West,270,0.0,-999.0,64,-99.99,,,0.00,Acu-Link.com,2014-01-26 06:47:00,
2014-01-26 02:02:00,31.8,20.7,29.78,ENE,67,0.0,-999.0,63,-99.99,,,0.00,Acu-Link.com,2014-01-26 07:02:00,
2014-01-26 02:17:00,31.5,20.7,29.77,SE,135,0.0,-999.0,64,-99.99,,,0.00,Acu-Link.com,2014-01-26 07:17:00,
2014-01-26 02:32:00,31.1,20.7,29.78,SSW,202,0.0,-999.0,65,-99.99,,,0.00,Acu-Link.com,2014-01-26 07:32:00,
2014-01-26 02:48:00,30.7,20.7,29.78,WNW,292,0.0,-999.0,66,-99.99,,,0.00,Acu-Link.com,2014-01-26 07:48:00,
2014-01-26 03:03:00,30.4,21.1,29.79,SSE,157,0.0,-999.0,68,-99.99,,,0.00,Acu-Link.com,2014-01-26 08:03:00,
2014-01-26 03:18:00,29.7,20.8,29.79,South,180,0.0,-999.0,69,-99.99,,,0.00,Acu-Link.com,2014-01-26 08:18:00,
2014-01-26 03:33:00,29.3,21.4,29.79,South,180,0.0,-999.0,72,-99.99,,,0.00,Acu-Link.com,2014-01-26 08:33:00,
2014-01-26 03:48:00,28.9,21.0,29.79,South,180,0.0,-999.0,72,-99.99,,,0.00,Acu-Link.com,2014-01-26 08:48:00,
2014-01-26 04:03:00,28.8,21.3,29.79,SSW,202,0.0,-999.0,73,-99.99,,,0.00,Acu-Link.com,2014-01-26 09:03:00,
2014-01-26 04:18:00,28.0,21.7,29.79,SSE,157,0.0,-999.0,77,-99.99,,,0.00,Acu-Link.com,2014-01-26 09:18:00,
2014-01-26 04:33:00,27.5,20.9,29.79,SSW,202,0.0,-999.0,76,-99.99,,,0.00,Acu-Link.com,2014-01-26 09:33:00,
2014-01-26 04:48:00,27.7,21.1,29.80,SSW,202,0.0,-999.0,76,-99.99,,,0.00,Acu-Link.com,2014-01-26 09:48:00,
2014-01-26 05:04:00,27.7,21.8,29.79,South,180,0.0,-999.0,78,-99.99,,,0.00,Acu-Link.com,2014-01-26 10:04:00,
2014-01-26 05:19:00,27.5,21.3,29.79,South,180,0.0,-999.0,77,-99.99,,,0.00,Acu-Link.com,2014-01-26 10:19:00,
2014-01-26 05:35:00,27.1,22.1,29.80,South,180,0.0,-999.0,81,-99.99,,,0.00,Acu-Link.com,2014-01-26 10:35:00,
2014-01-26 05:50:00,26.8,22.3,29.80,SSE,157,0.0,-999.0,83,-99.99,,,0.00,Acu-Link.com,2014-01-26 10:50:00,
2014-01-26 06:05:00,26.4,21.7,29.80,South,180,0.0,-999.0,82,-99.99,,,0.00,Acu-Link.com,2014-01-26 11:05:00,
2014-01-26 06:20:00,26.1,21.1,29.81,South,180,0.0,-999.0,81,-99.99,,,0.00,Acu-Link.com,2014-01-26 11:20:00,
2014-01-26 06:35:00,25.9,21.5,29.82,SSW,202,0.0,-999.0,83,-99.99,,,0.00,Acu-Link.com,2014-01-26 11:35:00,
2014-01-26 06:50:00,25.9,21.5,29.81,SSW,202,0.0,-999.0,83,-99.99,,,0.00,Acu-Link.com,2014-01-26 11:50:00,
2014-01-26 07:05:00,26.1,21.4,29.81,South,180,0.0,-999.0,82,-99.99,,,0.00,Acu-Link.com,2014-01-26 12:05:00,
2014-01-26 07:21:00,26.1,21.4,29.82,South,180,0.0,-999.0,82,-99.99,,,0.00,Acu-Link.com,2014-01-26 12:21:00,
2014-01-26 07:36:00,26.2,21.8,29.82,South,180,0.0,-999.0,83,-99.99,,,0.00,Acu-Link.com,2014-01-26 12:36:00,
2014-01-26 07:51:00,25.9,22.3,29.82,South,180,0.0,-999.0,86,-99.99,,,0.00,Acu-Link.com,2014-01-26 12:51:00,
2014-01-26 08:06:00,25.9,22.8,29.82,South,180,0.0,-999.0,88,-99.99,,,0.00,Acu-Link.com,2014-01-26 13:06:00,
2014-01-26 08:21:00,25.9,22.3,29.82,SSE,157,0.0,-999.0,86,-99.99,,,0.00,Acu-Link.com,2014-01-26 13:21:00,
2014-01-26 08:36:00,27.0,23.1,29.83,East,90,0.0,-999.0,85,-99.99,,,0.00,Acu-Link.com,2014-01-26 13:36:00,
2014-01-26 08:51:00,29.1,24.6,29.82,SSW,202,0.0,-999.0,83,-99.99,,,0.00,Acu-Link.com,2014-01-26 13:51:00,
2014-01-26 09:06:00,31.6,25.5,29.83,West,270,0.0,-999.0,78,-99.99,,,0.00,Acu-Link.com,2014-01-26 14:06:00,
2014-01-26 09:22:00,33.4,25.7,29.83,West,270,0.0,-999.0,73,-99.99,,,0.00,Acu-Link.com,2014-01-26 14:22:00,
2014-01-26 09:37:00,35.4,25.9,29.84,NE,45,0.0,-999.0,68,-99.99,,,0.00,Acu-Link.com,2014-01-26 14:37:00,
2014-01-26 09:52:00,37.6,26.2,29.85,SSW,202,0.0,-999.0,63,-99.99,,,0.00,Acu-Link.com,2014-01-26 14:52:00,
2014-01-26 10:07:00,39.4,25.9,29.85,WNW,292,0.0,-999.0,58,-99.99,,,0.00,Acu-Link.com,2014-01-26 15:07:00,
2014-01-26 10:22:00,41.0,25.2,29.85,SW,225,2.2,-999.0,53,-99.99,,,0.00,Acu-Link.com,2014-01-26 15:22:00,
2014-01-26 10:37:00,42.8,25.0,29.85,NNW,337,2.7,-999.0,49,-99.99,,,0.00,Acu-Link.com,2014-01-26 15:37:00,
2014-01-26 10:53:00,44.1,25.2,29.85,West,270,1.7,-999.0,47,-99.99,,,0.00,Acu-Link.com,2014-01-26 15:53:00,
2014-01-26 11:08:00,45.7,25.1,29.84,West,270,2.2,-999.0,44,-99.99,,,0.00,Acu-Link.com,2014-01-26 16:08:00,
2014-01-26 11:23:00,46.2,25.0,29.84,NNE,22,1.7,-999.0,43,-99.99,,,0.00,Acu-Link.com,2014-01-26 16:23:00,
2014-01-26 11:38:00,47.3,26.0,29.84,South,180,2.2,-999.0,43,-99.99,,,0.00,Acu-Link.com,2014-01-26 16:38:00,
2014-01-26 11:53:00,48.2,26.2,29.84,SSW,202,2.2,-999.0,42,-99.99,,,0.00,Acu-Link.com,2014-01-26 16:53:00,
2014-01-26 12:08:00,49.6,27.5,29.82,South,180,1.7,-999.0,42,-99.99,,,0.00,Acu-Link.com,2014-01-26 17:08:00,
2014-01-26 12:23:00,51.4,27.3,29.81,WNW,292,2.2,-999.0,39,-99.99,,,0.00,Acu-Link.com,2014-01-26 17:23:00,
2014-01-26 12:38:00,53.8,28.8,29.80,West,270,0.0,-999.0,38,-99.99,,,0.00,Acu-Link.com,2014-01-26 17:38:00,
2014-01-26 12:53:00,55.0,29.2,29.79,South,180,1.7,-999.0,37,-99.99,,,0.00,Acu-Link.com,2014-01-26 17:53:00,
2014-01-26 13:09:00,55.6,29.1,29.79,WNW,292,2.2,-999.0,36,-99.99,,,0.00,Acu-Link.com,2014-01-26 18:09:00,
2014-01-26 13:24:00,56.1,30.2,29.77,NW,315,1.7,-999.0,37,-99.99,,,0.00,Acu-Link.com,2014-01-26 18:24:00,
2014-01-26 13:39:00,56.3,29.7,29.77,West,270,2.2,-999.0,36,-99.99,,,0.00,Acu-Link.com,2014-01-26 18:39:00,
2014-01-26 13:54:00,57.2,30.5,29.77,SSW,202,1.7,-999.0,36,-99.99,,,0.00,Acu-Link.com,2014-01-26 18:54:00,
2014-01-26 14:09:00,57.4,30.0,29.77,North,0,1.7,-999.0,35,-99.99,,,0.00,Acu-Link.com,2014-01-26 19:09:00,
2014-01-26 14:24:00,55.4,29.6,29.76,SSW,202,1.7,-999.0,37,-99.99,,,0.00,Acu-Link.com,2014-01-26 19:24:00,
2014-01-26 14:39:00,55.8,29.9,29.75,South,180,2.7,-999.0,37,-99.99,,,0.00,Acu-Link.com,2014-01-26 19:39:00,
2014-01-26 14:55:00,54.9,29.8,29.75,East,90,2.2,-999.0,38,-99.99,,,0.00,Acu-Link.com,2014-01-26 19:55:00,
2014-01-26 15:10:00,54.9,29.8,29.74,West,270,3.2,-999.0,38,-99.99,,,0.00,Acu-Link.com,2014-01-26 20:10:00,
2014-01-26 15:25:00,54.3,29.2,29.74,WNW,292,3.2,-999.0,38,-99.99,,,0.00,Acu-Link.com,2014-01-26 20:25:00,
2014-01-26 15:41:00,54.3,29.9,29.73,NE,45,2.7,-999.0,39,-99.99,,,0.00,Acu-Link.com,2014-01-26 20:41:00,
2014-01-26 15:56:00,54.3,30.5,29.73,SSW,202,2.7,-999.0,40,-99.99,,,0.00,Acu-Link.com,2014-01-26 20:56:00,
2014-01-26 16:11:00,54.0,30.2,29.73,West,270,2.2,-999.0,40,-99.99,,,0.00,Acu-Link.com,2014-01-26 21:11:00,
2014-01-26 16:26:00,54.1,30.3,29.74,South,180,2.7,-999.0,40,-99.99,,,0.00,Acu-Link.com,2014-01-26 21:26:00,
2014-01-26 16:41:00,53.4,29.7,29.74,ESE,112,2.2,-999.0,40,-99.99,,,0.00,Acu-Link.com,2014-01-26 21:41:00,
2014-01-26 16:57:00,52.7,30.3,29.74,NNE,22,0.0,-999.0,42,-99.99,,,0.00,Acu-Link.com,2014-01-26 21:57:00,
2014-01-26 17:12:00,51.8,30.0,29.74,SSW,202,1.1,-999.0,43,-99.99,,,0.00,Acu-Link.com,2014-01-26 22:12:00,
2014-01-26 17:27:00,50.9,29.8,29.74,SSE,157,1.7,-999.0,44,-99.99,,,0.00,Acu-Link.com,2014-01-26 22:27:00,
2014-01-26 17:42:00,50.2,29.7,29.75,South,180,0.0,-999.0,45,-99.99,,,0.00,Acu-Link.com,2014-01-26 22:42:00,
2014-01-26 17:57:00,49.5,29.6,29.75,South,180,0.0,-999.0,46,-99.99,,,0.00,Acu-Link.com,2014-01-26 22:57:00,
2014-01-26 18:13:00,48.4,29.6,29.76,ESE,112,0.0,-999.0,48,-99.99,,,0.00,Acu-Link.com,2014-01-26 23:13:00,
2014-01-26 18:28:00,47.7,29.5,29.76,SW,225,0.0,-999.0,49,-99.99,,,0.00,Acu-Link.com,2014-01-26 23:28:00,
2014-01-26 18:43:00,46.8,29.2,29.77,ESE,112,0.0,-999.0,50,-99.99,,,0.00,Acu-Link.com,2014-01-26 23:43:00,
2014-01-26 18:59:00,46.4,29.7,29.77,South,180,0.0,-999.0,52,-99.99,,,0.00,Acu-Link.com,2014-01-26 23:59:00,
2014-01-26 19:14:00,46.4,29.7,29.78,SSW,202,0.0,-999.0,52,-99.99,,,0.00,Acu-Link.com,2014-01-27 00:14:00,
2014-01-26 19:29:00,46.4,30.2,29.77,West,270,0.0,-999.0,53,-99.99,,,0.00,Acu-Link.com,2014-01-27 00:29:00,
2014-01-26 19:44:00,46.0,29.8,29.77,SSE,157,0.0,-999.0,53,-99.99,,,0.00,Acu-Link.com,2014-01-27 00:44:00,
2014-01-26 19:59:00,45.7,29.6,29.77,SSW,202,0.0,-999.0,53,-99.99,,,0.00,Acu-Link.com,2014-01-27 00:59:00,
2014-01-26 20:14:00,45.5,29.8,29.77,South,180,0.0,-999.0,54,-99.99,,,0.00,Acu-Link.com,2014-01-27 01:14:00,
2014-01-26 20:30:00,45.1,29.9,29.77,South,180,0.0,-999.0,55,-99.99,,,0.00,Acu-Link.com,2014-01-27 01:30:00,
2014-01-26 20:46:00,45.0,29.8,29.77,South,180,0.0,-999.0,55,-99.99,,,0.00,Acu-Link.com,2014-01-27 01:46:00,
2014-01-26 21:02:00,44.8,29.6,29.77,South,180,0.0,-999.0,55,-99.99,,,0.00,Acu-Link.com,2014-01-27 02:02:00,
2014-01-26 21:17:00,44.6,29.9,29.78,South,180,0.0,-999.0,56,-99.99,,,0.00,Acu-Link.com,2014-01-27 02:17:00,
2014-01-26 21:48:00,43.9,30.1,29.78,SSE,157,0.0,-999.0,58,-99.99,,,0.00,Acu-Link.com,2014-01-27 02:48:00,
2014-01-26 22:03:00,43.7,29.9,29.78,SSW,202,0.0,-999.0,58,-99.99,,,0.00,Acu-Link.com,2014-01-27 03:03:00,
2014-01-26 22:18:00,43.7,29.9,29.77,South,180,0.0,-999.0,58,-99.99,,,0.00,Acu-Link.com,2014-01-27 03:18:00,
2014-01-26 22:33:00,43.7,29.9,29.78,South,180,0.0,-999.0,58,-99.99,,,0.00,Acu-Link.com,2014-01-27 03:33:00,
2014-01-26 22:49:00,43.7,29.9,29.78,SSW,202,1.7,-999.0,58,-99.99,,,0.00,Acu-Link.com,2014-01-27 03:49:00,
2014-01-26 23:05:00,43.5,29.7,29.79,WSW,247,0.0,-999.0,58,-99.99,,,0.00,Acu-Link.com,2014-01-27 04:05:00,
2014-01-26 23:20:00,43.3,29.5,29.78,SSW,202,0.0,-999.0,58,-99.99,,,0.00,Acu-Link.com,2014-01-27 04:20:00,
2014-01-26 23:36:00,42.6,29.7,29.77,South,180,0.0,-999.0,60,-99.99,,,0.00,Acu-Link.com,2014-01-27 04:36:00,
2014-01-26 23:51:00,42.4,29.5,29.78,South,180,0.0,-999.0,60,-99.99,,,0.00,Acu-Link.com,2014-01-27 04:51:00,